Regional Weather Roundup
Issued by NWS Sioux Falls, SD

Home | Current Version | Previous Version | Text Only | Print | Product List | Glossary On
Versions: 1 2 3 4 5 6 7 8 9 10 11 12 13 14 15 16 17 18 19 20 21 22 23 24 25 26 27 28 29 30 31 32 33 34 35 36 37 38 39 40 41 42 43 44 45 46 47 48 49 50
000
ASUS43 KFSD 301002
RWRFSD

WEATHER ROUNDUP FOR SE SOUTH DAKOTA/SW MINNESOTA/NW IOWA
NATIONAL WEATHER SERVICE SIOUX FALLS SD
500 AM CDT TUE SEP 30 2014

NOTE: "FAIR" INDICATES FEW OR NO CLOUDS BELOW 12,000 FEET WITH NO
SIGNIFICANT WEATHER AND OR OBSTRUCTIONS TO VISIBILITY.


SDZ038>040-050-052>070-301100-
SOUTHEAST SOUTH DAKOTA

CITY           SKY/WX    TMP DP  RH WIND       PRES   REMARKS
CHAMBERLAIN    CLOUDY    58  56  91 E20G26    29.71F
HURON          CLOUDY    54  50  86 SE17      29.81F
MADISON        PTSUNNY   50  50 100 E10G17    29.91F
MITCHELL       CLOUDY    54  51  90 SE14G23   29.83F
SIOUX FALLS    CLOUDY    53  49  86 E15       29.91F
WINNER         LGT RAIN  63  60  90 SE20G30   29.68F FOG
YANKTON        CLOUDY    57  55  94 E13       29.85F
$$

MNZ071-072-080-081-089-090-097-098-301100-
SOUTHWEST MINNESOTA

CITY           SKY/WX    TMP DP  RH WIND       PRES   REMARKS
FAIRMONT       PTCLDY    46  41  81 E7        30.01F
JACKSON        CLEAR     46  45  93 E9        30.00F
LUVERNE        PTCLDY    54  46  76 E7        29.95F
MARSHALL       CLOUDY    46  41  81 SE13G18   29.98F
MONTEVIDEO     CLOUDY    43  43 100 SE12      30.02F
PIPESTONE      PTCLDY    50  46  87 SE14G20   29.93F
REDWOOD FALLS  MOCLDY    44  42  93 E12       30.02F
TRACY          CLOUDY    47  46  95 E9G17     29.99F
WINDOM         PTCLDY    46  45  93 E10       30.00S
WORTHINGTON    PTCLDY    48  46  93 E10       29.98F
$$

IAZ001>003-012>014-020>022-031-032-NEZ013-014-SDZ071-301100-
NORTHWEST IOWA

CITY           SKY/WX    TMP DP  RH WIND       PRES   REMARKS
CHEROKEE       MOCLDY    53  52  97 E3        29.95F
DENISON        CLOUDY    57  57 100 E7        29.92F
ESTHERVILLE    CLEAR     47  46  97 E6        29.99F
LE MARS          N/A     54  52  94 VRB3      29.92F
ORANGE CITY    CLOUDY    54  48  82 E9        29.92F
SHELDON        CLOUDY    52  50  93 E12G18    29.93F
SIOUX CITY     CLOUDY    58  55  90 E10       29.89F
SPENCER        PTCLDY    51  48  89 E12       29.97F
STORM LAKE     CLOUDY    52  50  93 E12       29.96F
$$

ABBREVIATIONS USED IN REMARKS
   TC - TEMPERATURE IN CELSIUS
  WCI - WIND CHILL INDEX
   HX - HEAT INDEX
  VSB - VISIBILITY




USA.gov is the U.S. government's official web portal to all federal, state and local government web resources and services.